Flag for China Weather past 2 weeks in Foochow, Fujian, China

Now
75 °F

Clear.


Feels Like: 75 °F
Forecast: 60 / 80 °F
Wind: 13 mph from South

Location: Fuzhou Airport

Current Time: Apr 19, 2015 at 4:44:52 PM

Latest Report: Apr 19, 2015 at 4:00 PM


Visibility: 4 mi

Pressure: 29.65 "Hg

Humidity: 83%

Dew point: 70 °F

Location of FoochowLocation

Historic Weather in Foochow — Graph

°F

Foochow temperature yesterday

Maximum temperature yesterday: 70 °F (at 10:00 AM)
Minimum temperature yesterday: 63 °F (at 12:00 AM)
Average temperature yesterday: 65 °F

Past Weeks' High & Low Weather Summary

 TemperatureHumidityPressure
High81 °F (Apr 4, 3:00 PM)100% (Apr 5, 6:00 AM)30.27 "Hg (Apr 5, 6:00 AM)
Low50 °F (Apr 8, 6:00 AM)28% (Apr 14, 10:00 AM)29.65 "Hg (Apr 19, 3:00 PM)
Average62 °F78%30.03 "Hg
* Reported Apr 4 3:00 PM — Apr 19 3:00 PM, Foochow, Weather by CustomWeather, © 2015

Note: Actual official high and low records may vary slightly from our data, if they occured in-between our weather recording intervals... More about our weather records

Advertising

Foochow weather history for previous 24 hours

 ConditionsComfort  
Time TempWeatherWind HumidityBarometerVisibility
3:00 PM
Sun, Apr 19
75 °FPassing clouds.17 mph83%29.65 "Hg4 mi
2:00 PM75 °FScattered clouds.13 mph83%29.68 "Hg4 mi
1:00 PM75 °FScattered clouds.17 mph83%29.71 "Hg4 mi
12:00 PM77 °FPassing clouds.17 mph79%29.71 "Hg4 mi
11:00 AM77 °FPassing clouds.17 mph79%29.71 "Hg4 mi
10:00 AM79 °FPassing clouds.17 mph74%29.74 "Hg4 mi
9:00 AM81 °FScattered clouds.13 mph70%29.74 "Hg4 mi
8:00 AM77 °FScattered clouds.10 mph79%29.74 "Hg4 mi
7:00 AM75 °FFog.15 mph83%29.74 "Hg3 mi
6:00 AM75 °FFog.3 mph78%29.74 "Hg3 mi
5:00 AM72 °FPassing clouds.10 mph88%29.74 "Hg4 mi
4:00 AM72 °FClear.8 mph88%29.74 "Hg4 mi
3:00 AM72 °FPassing clouds.3 mph83%29.74 "Hg4 mi
2:00 AM77 °FPassing clouds.10 mph74%29.74 "HgN/A
1:00 AM75 °FClear.3 mph78%29.77 "Hg5 mi
12:00 AM72 °FFog.1 mph88%29.80 "Hg3 mi
11:00 PM
Sat, Apr 18
68 °FFog.1 mph94%29.80 "Hg1 mi
10:00 PM66 °FFog.1 mph94%29.80 "Hg1 mi
9:00 PM66 °FFog.1 mph94%29.80 "Hg1 mi
8:00 PM64 °FFog.1 mph94%29.80 "Hg1 mi
7:00 PM64 °FSprinkles. Fog.3 mph94%29.80 "Hg2 mi
6:00 PM64 °FThunderstorms. Fog.3 mph94%29.80 "Hg2 mi
5:00 PM66 °FSprinkles. Fog.6 mph88%29.77 "Hg2 mi
4:00 PM66 °FFog.3 mph88%29.77 "Hg2 mi
Weather by CustomWeather, © 2015

See weather overviewHow to use our weather pages